Time,TemperatureF,DewpointF,PressureIn,WindDirection,WindDirectionDegrees,WindSpeedMPH,WindSpeedGustMPH,Humidity,HourlyPrecipIn,Conditions,Clouds,dailyrainin,SolarRadiationWatts/m^2,SoftwareType,DateUTC
2013-01-06 12:02:00,20.0,18.0,-100.00,ESE,105,5.0,9.0,92,0.00,,,0.03,24.299999,,2013-01-06 21:02:00,
2013-01-06 12:12:00,20.0,18.0,-100.00,ESE,105,5.0,9.0,92,0.00,,,0.03,24.299999,,2013-01-06 21:12:00,
2013-01-06 12:22:00,20.0,18.0,-100.00,ESE,105,5.0,9.0,92,0.00,,,0.03,24.299999,,2013-01-06 21:22:00,
2013-01-06 12:33:00,20.0,18.0,-100.00,ESE,105,5.0,9.0,92,0.00,,,0.03,24.299999,,2013-01-06 21:33:00,
2013-01-06 12:42:00,20.0,18.0,-100.00,ESE,105,5.0,9.0,92,0.00,,,0.03,24.299999,,2013-01-06 21:42:00,
2013-01-06 13:02:00,21.0,19.0,-100.00,ESE,110,5.0,8.0,92,0.00,,,0.02,71.599998,,2013-01-06 22:02:00,
2013-01-06 13:12:00,21.0,19.0,-100.00,ESE,110,5.0,8.0,92,0.00,,,0.02,71.599998,,2013-01-06 22:12:00,
2013-01-06 13:22:00,21.0,19.0,-100.00,ESE,110,5.0,8.0,92,0.00,,,0.02,71.599998,,2013-01-06 22:22:00,
2013-01-06 13:33:00,21.0,19.0,-100.00,ESE,110,5.0,8.0,92,0.00,,,0.02,71.599998,,2013-01-06 22:33:00,
2013-01-06 13:42:00,21.0,19.0,-100.00,ESE,110,5.0,8.0,92,0.00,,,0.02,71.599998,,2013-01-06 22:42:00,
2013-01-06 14:02:00,20.0,19.0,-100.00,ESE,113,4.0,7.0,92,0.00,,,0.00,66.900002,,2013-01-06 23:02:00,
2013-01-06 14:12:00,20.0,19.0,-100.00,ESE,113,4.0,7.0,92,0.00,,,0.00,66.900002,,2013-01-06 23:12:00,
2013-01-06 14:22:00,20.0,19.0,-100.00,ESE,113,4.0,7.0,92,0.00,,,0.00,66.900002,,2013-01-06 23:22:00,
2013-01-06 14:32:00,20.0,19.0,-100.00,ESE,113,4.0,7.0,92,0.00,,,0.00,66.900002,,2013-01-06 23:32:00,
2013-01-06 14:42:00,20.0,19.0,-100.00,ESE,113,4.0,7.0,92,0.00,,,0.00,66.900002,,2013-01-06 23:42:00,
2013-01-06 15:02:00,19.0,17.0,-100.00,ESE,114,6.0,9.0,91,0.00,,,0.00,53.700001,,2013-01-07 00:02:00,
2013-01-06 15:12:00,19.0,17.0,-100.00,ESE,114,6.0,9.0,91,0.00,,,0.00,53.700001,,2013-01-07 00:12:00,
2013-01-06 15:22:00,19.0,17.0,-100.00,ESE,114,6.0,9.0,91,0.00,,,0.00,53.700001,,2013-01-07 00:22:00,
2013-01-06 15:32:00,19.0,17.0,-100.00,ESE,114,6.0,9.0,91,0.00,,,0.00,53.700001,,2013-01-07 00:32:00,
2013-01-06 15:42:00,19.0,17.0,-100.00,ESE,114,6.0,9.0,91,0.00,,,0.00,53.700001,,2013-01-07 00:42:00,
2013-01-06 16:02:00,19.0,16.0,-100.00,East,94,5.0,8.0,91,0.00,,,0.00,23.299999,,2013-01-07 01:02:00,
2013-01-06 16:12:00,19.0,16.0,-100.00,East,94,5.0,8.0,91,0.00,,,0.00,23.299999,,2013-01-07 01:12:00,
2013-01-06 16:22:00,19.0,16.0,-100.00,East,94,5.0,8.0,91,0.00,,,0.00,23.299999,,2013-01-07 01:22:00,
2013-01-06 16:32:00,19.0,16.0,-100.00,East,94,5.0,8.0,91,0.00,,,0.00,23.299999,,2013-01-07 01:32:00,
2013-01-06 16:42:00,19.0,16.0,-100.00,East,94,5.0,8.0,91,0.00,,,0.00,23.299999,,2013-01-07 01:42:00,
2013-01-06 17:02:00,19.0,16.0,-100.00,East,91,3.0,7.0,91,0.00,,,0.00,4.300000,,2013-01-07 02:02:00,
2013-01-06 17:12:00,19.0,16.0,-100.00,East,91,3.0,7.0,91,0.00,,,0.00,4.300000,,2013-01-07 02:12:00,
2013-01-06 17:22:00,19.0,16.0,-100.00,East,91,3.0,7.0,91,0.00,,,0.00,4.300000,,2013-01-07 02:22:00,
2013-01-06 17:32:00,19.0,16.0,-100.00,East,91,3.0,7.0,91,0.00,,,0.00,4.300000,,2013-01-07 02:32:00,
2013-01-06 17:42:00,19.0,16.0,-100.00,East,91,3.0,7.0,91,0.00,,,0.00,4.300000,,2013-01-07 02:42:00,
2013-01-06 18:02:00,19.0,17.0,-100.00,East,87,5.0,5.0,92,0.00,,,0.00,0.700000,,2013-01-07 03:02:00,
2013-01-06 18:12:00,19.0,17.0,-100.00,East,87,5.0,5.0,92,0.00,,,0.00,0.700000,,2013-01-07 03:12:00,
2013-01-06 18:22:00,19.0,17.0,-100.00,East,87,5.0,5.0,92,0.00,,,0.00,0.700000,,2013-01-07 03:22:00,
2013-01-06 18:32:00,19.0,17.0,-100.00,East,87,5.0,5.0,92,0.00,,,0.00,0.700000,,2013-01-07 03:32:00,
2013-01-06 18:42:00,19.0,17.0,-100.00,East,87,5.0,5.0,92,0.00,,,0.00,0.700000,,2013-01-07 03:42:00,
2013-01-06 19:02:00,20.0,18.0,-100.00,ENE,78,5.0,6.0,92,0.00,,,0.00,0.700000,,2013-01-07 04:02:00,
2013-01-06 19:12:00,20.0,18.0,-100.00,ENE,78,5.0,6.0,92,0.00,,,0.00,0.700000,,2013-01-07 04:12:00,
2013-01-06 19:22:00,20.0,18.0,-100.00,ENE,78,5.0,6.0,92,0.00,,,0.00,0.700000,,2013-01-07 04:22:00,
2013-01-06 19:32:00,20.0,18.0,-100.00,ENE,78,5.0,6.0,92,0.00,,,0.00,0.700000,,2013-01-07 04:32:00,
2013-01-06 19:42:00,20.0,18.0,-100.00,ENE,78,5.0,6.0,92,0.00,,,0.00,0.700000,,2013-01-07 04:42:00,
2013-01-06 20:02:00,20.0,18.0,-100.00,East,86,4.0,6.0,92,0.00,,,0.00,0.700000,,2013-01-07 05:02:00,
2013-01-06 20:12:00,20.0,18.0,-100.00,East,86,4.0,6.0,92,0.00,,,0.00,0.700000,,2013-01-07 05:12:00,
2013-01-06 20:22:00,20.0,18.0,-100.00,East,86,4.0,6.0,92,0.00,,,0.00,0.700000,,2013-01-07 05:22:00,
2013-01-06 20:32:00,20.0,18.0,-100.00,East,86,4.0,6.0,92,0.00,,,0.00,0.700000,,2013-01-07 05:32:00,
2013-01-06 20:42:00,20.0,18.0,-100.00,East,86,4.0,6.0,92,0.00,,,0.00,0.700000,,2013-01-07 05:42:00,
2013-01-06 21:02:00,21.0,19.0,-100.00,ESE,106,5.0,5.0,93,0.00,,,-99.99,0.700000,,2013-01-07 06:02:00,
2013-01-06 21:12:00,21.0,19.0,-100.00,ESE,106,5.0,5.0,93,0.00,,,-99.99,0.700000,,2013-01-07 06:12:00,
2013-01-06 21:22:00,21.0,19.0,-100.00,ESE,106,5.0,5.0,93,0.00,,,-99.99,0.700000,,2013-01-07 06:22:00,
2013-01-06 21:32:00,21.0,19.0,-100.00,ESE,106,5.0,5.0,93,0.00,,,-99.99,0.700000,,2013-01-07 06:32:00,
2013-01-06 21:42:00,21.0,19.0,-100.00,ESE,106,5.0,5.0,93,0.00,,,-99.99,0.700000,,2013-01-07 06:42:00,
2013-01-06 22:02:00,21.0,19.0,-100.00,ESE,105,6.0,6.0,93,0.00,,,0.00,0.700000,,2013-01-07 07:02:00,
2013-01-06 22:12:00,21.0,19.0,-100.00,ESE,105,6.0,6.0,93,0.00,,,0.00,0.700000,,2013-01-07 07:12:00,
2013-01-06 22:22:00,21.0,19.0,-100.00,ESE,105,6.0,6.0,93,0.00,,,0.00,0.700000,,2013-01-07 07:22:00,
2013-01-06 22:32:00,21.0,19.0,-100.00,ESE,105,6.0,6.0,93,0.00,,,0.00,0.700000,,2013-01-07 07:32:00,
2013-01-06 22:42:00,21.0,19.0,-100.00,ESE,105,6.0,6.0,93,0.00,,,0.00,0.700000,,2013-01-07 07:42:00,
2013-01-06 23:03:00,20.0,19.0,-100.00,East,99,5.0,8.0,93,0.00,,,0.00,0.700000,,2013-01-07 08:03:00,
2013-01-06 23:12:00,20.0,19.0,-100.00,East,99,5.0,8.0,93,0.00,,,0.00,0.700000,,2013-01-07 08:12:00,
2013-01-06 23:22:00,20.0,19.0,-100.00,East,99,5.0,8.0,93,0.00,,,0.00,0.700000,,2013-01-07 08:22:00,
2013-01-06 23:32:00,20.0,19.0,-100.00,East,99,5.0,8.0,93,0.00,,,0.00,0.700000,,2013-01-07 08:32:00,
2013-01-06 23:42:00,20.0,19.0,-100.00,East,99,5.0,8.0,93,0.00,,,0.00,0.700000,,2013-01-07 08:42:00,